カタログに戻る

CZ-4 DEB

運用中SSO
NORAD 20850·DEBRIS·🇨🇳 China

打ち上げ Sep 3, 1990 から Taiyuan Satellite Launch Center

Loading…

次のパス (今後24時間)

TLE

最新Source: Space-Track

元期: Sep 14, 2026, 14:57 UTC

1 20850U 90081N   26257.62332779  .00000265  00000-0  11100-3 0  9993
2 20850  98.4389 305.2022 0071333 318.6753 204.4701 14.32275455875761

AllMySatでCZ-4 DEBをリアルタイム追跡

Download on the App Store